Location: Aufkirchen
(47.9603°N, 11.3653°E)
Time: 16:21:01
(UTC+01:00)

Transit 2A - Pass Details

Date: 28 November 2020
Orbit: 599 x 960 km, 66.7° (Epoch: 26 January)

Event Time Altitude Azimuth Distance (km) Brightness Sun altitude
Rises 18:40:31 0° 230° (SW) 3,625 10.4 -22.0°
Reaches altitude 10° 18:43:11 10° 235° (SW) 2,667 9.7 -22.4°
Maximum altitude 18:49:17 52° 311° (NW) 1,124 7.0 -23.4°
Enters shadow 18:52:43 24° 18° (NNE) 1,744 7.6 -24.0°
Drops below altitude 10° 18:55:03 10° 28° (NNE) 2,515 - -24.4°
Sets 18:57:30 0° 34° (NNE) 3,402 - -24.8°
